Location: Miramichi City (Newcastle)
(46.9830°N, 65.5670°W)
Time: 09:01:53
(UTC-04:00)

Iridium 12 - Visible Passes

Search period start: 17 January 2017 00:00
Search period end: 27 January 2017 00:00
Orbit: 776 x 779 km, 86.4° (Epoch: 16 January)

Date Brightness Start Highest point End Pass type
(mag) Time Alt. Az. Time Alt. Az. Time Alt. Az.
17 Jan 8.5 06:01:40 10° NE 06:03:27 12° ENE 06:05:15 10° E visible
18 Jan 6.7 07:06:26 10° N 07:11:29 46° E 07:16:28 10° SSE visible
19 Jan 7.7 06:33:17 10° NNE 06:37:44 27° ENE 06:42:08 10° SE visible
20 Jan 8.3 06:00:36 10° NNE 06:03:50 16° ENE 06:07:04 10° ESE visible
21 Jan 6.0 07:06:25 10° N 07:11:38 65° E 07:16:48 10° SSE visible
21 Jan 7.1 20:06:18 10° SSW 20:08:34 26° SSW 20:08:34 26° SSW visible
22 Jan 7.1 06:33:07 10° NNE 06:37:58 37° E 06:42:47 10° SSE visible
22 Jan 5.4 19:32:47 10° S 19:44:24 - N 19:37:28 66° SE visible
22 Jan 8.1 21:15:57 10° WSW 21:24:45 - NNW 21:18:09 16° W visible
23 Jan 8.0 06:00:06 10° NNE 06:04:10 22° ENE 06:08:12 10° SE visible
23 Jan 5.9 18:59:43 10° SSE 19:04:33 40° E 19:09:24 10° NNE visible
23 Jan 7.3 20:40:56 10° SW 20:45:23 28° WNW 20:49:52 10° NNW visible
24 Jan 8.5 05:27:48 10° NE 05:30:14 13° ENE 05:32:39 10° E visible
24 Jan 5.6 07:06:30 10° N 07:11:45 90° WSW 07:16:59 10° S visible
24 Jan 6.5 18:27:12 10° SE 18:31:15 24° E 18:35:20 10° NNE visible
24 Jan 6.4 20:06:38 10° SSW 20:11:39 48° W 20:16:43 10° N visible
25 Jan 6.4 06:33:02 10° N 06:38:10 52° E 06:43:15 10° SSE visible
25 Jan 7.1 17:55:33 10° ESE 17:58:05 14° ENE 18:00:37 10° NE visible
25 Jan 5.5 19:32:50 10° S 19:38:02 84° W 19:43:18 10° N visible
25 Jan 8.5 21:17:38 10° W 21:19:38 12° WNW 21:21:39 10° NW visible
26 Jan 7.5 05:59:51 10° NNE 06:04:27 30° ENE 06:09:02 10° SE visible
26 Jan 5.5 18:59:28 10° SSE 19:04:33 56° E 19:09:40 10° NNE visible
26 Jan 7.9 20:41:48 10° WSW 20:45:41 21° WNW 20:49:34 10° NNW visible
